EW7351 Weather Reports


time (UTC)temp
C
wind
direction
speed
KPH
gust
KPH
rain 1hr
cm
rain 24hr
cm
rain mn
cm
humidity
%
barometer
mb
20260904191018 36 233 6.4 16.1 0.00 0.00 0.00 42 1012.0
20260904190517 36 141 6.4 14.5 0.00 0.00 0.00 41 1012.1
20260904190013 36 120 6.4 14.5 0.00 0.00 0.00 40 1012.2
20260904185509 36 155 6.4 19.3 0.00 0.00 0.00 41 1012.2
20260904185009 36 172 6.4 19.3 0.00 0.00 0.00 40 1012.2
20260904184443 36 91 6.4 17.7 0.00 0.00 0.00 43 1012.2
20260904183918 35 172 6.4 17.7 0.00 0.00 0.00 43 1012.3
20260904183348 36 135 4.8 14.5 0.00 0.00 0.00 42 1012.5
20260904183115 36 114 3.2 14.5 0.00 0.00 0.00 41 1012.5
20260904182318 35 221 4.8 14.5 0.00 0.00 0.00 43 1012.5
20260904181751 35 136 4.8 14.5 0.00 0.00 0.00 44 1012.7
20260904181513 35 199 4.8 14.5 0.00 0.00 0.00 44 1012.8
20260904180747 35 141 4.8 14.5 0.00 0.00 0.00 43 1012.8
20260904180218 35 146 4.8 16.1 0.00 0.00 0.00 44 1012.9
20260904175717 35 114 6.4 17.7 0.00 0.00 0.00 46 1013.1
20260904175150 35 114 6.4 14.5 0.00 0.00 0.00 44 1013.0
20260904174625 35 148 6.4 14.5 0.00 0.00 0.00 43 1013.1
20260904174326 35 138 6.4 14.5 0.00 0.00 0.00 46 1013.1
20260904173541 35 111 4.8 19.3 0.00 0.00 0.00 45 1013.1
20260904173259 35 226 3.2 14.5 0.00 0.00 0.00 43 1013.3
20260904172541 35 221 3.2 14.5 0.00 0.00 0.00 46 1013.4
20260904172243 34 150 4.8 14.5 0.00 0.00 0.00 47 1013.5
20260904171511 34 234 6.4 14.5 0.00 0.00 0.00 46 1013.5
20260904170942 34 101 3.2 11.3 0.00 0.00 0.00 45 1013.5
20260904170440 33 230 3.2 11.3 0.00 0.00 0.00 49 1013.5
20260904165939 33 146 4.8 11.3 0.00 0.00 0.00 49 1013.6
20260904165410 33 105 4.8 11.3 0.00 0.00 0.00 51 1013.6
20260904164908 33 212 4.8 16.1 0.00 0.00 0.00 52 1013.7
20260904164342 33 223 4.8 16.1 0.00 0.00 0.00 52 1013.7
20260904163841 32 244 4.8 14.5 0.00 0.00 0.00 53 1013.7
20260904163343 32 191 4.8 14.5 0.00 0.00 0.00 55 1013.7
20260904163105 32 219 6.4 12.9 0.00 0.00 0.00 55 1013.8
20260904162345 32 238 4.8 11.3 0.00 0.00 0.00 55 1013.7
20260904161818 32 214 6.4 17.7 0.00 0.00 0.00 55 1013.7
20260904161318 32 136 6.4 17.7 0.00 0.00 0.00 58 1013.7
20260904161245 32 122 4.8 14.5 0.00 0.00 0.00 58 1013.7
20260904160305 32 128 6.4 16.1 0.00 0.00 0.00 58 1013.8
20260904155736 31 139 6.4 16.1 0.00 0.00 0.00 58 1013.8
20260904155234 31 149 6.4 16.1 0.00 0.00 0.00 59 1013.7
20260904154707 31 233 6.4 16.1 0.00 0.00 0.00 60 1013.7
20260904154206 31 207 6.4 16.1 0.00 0.00 0.00 61 1013.7
20260904153638 31 185 4.8 16.1 0.00 0.00 0.00 62 1013.6
20260904153134 30 217 8.0 12.9 0.00 0.00 0.00 65 1013.7
20260904152608 30 226 9.7 19.3 0.00 0.00 0.00 65 1013.6
20260904152306 30 245 6.4 17.7 0.00 0.00 0.00 65 1013.6
20260904151514 30 135 4.8 16.1 0.00 0.00 0.00 68 1013.5
20260904150954 30 210 4.8 16.1 0.00 0.00 0.00 69 1013.5
20260904150429 29 181 4.8 12.9 0.00 0.00 0.00 70 1013.5
20260904145902 29 195 4.8 12.9 0.00 0.00 0.00 71 1013.6
20260904145357 28 114 4.8 12.9 0.00 0.00 0.00 72 1013.5
20260904144857 28 236 6.4 16.1 0.00 0.00 0.00 73 1013.6
20260904144829 28 167 6.4 16.1 0.00 0.00 0.00 75 1013.6
20260904143809 28 196 6.4 14.5 0.00 0.00 0.00 75 1013.6
20260904143236 28 226 6.4 11.3 0.00 0.00 0.00 75 1013.7
20260904142925 28 218 6.4 12.9 0.00 0.00 0.00 76 1013.7
20260904142206 28 202 4.8 12.9 0.00 0.00 0.00 77 1013.7
20260904141645 28 207 4.8 12.9 0.00 0.00 0.00 78 1013.6
20260904141138 27 120 4.8 11.3 0.00 0.00 0.00 78 1013.5
20260904140640 27 212 6.4 14.5 0.00 0.00 0.00 79 1013.6
20260904140136 27 252 6.4 14.5 0.00 0.00 0.00 79 1013.6
20260904135635 27 222 4.8 12.9 0.00 0.00 0.00 80 1013.5
20260904135340 27 146 4.8 12.9 0.00 0.00 0.00 81 1013.5
20260904134842 26 217 6.4 17.7 0.00 0.00 0.00 82 1013.4
20260904134049 26 134 4.8 14.5 0.00 0.00 0.00 83 1013.3
20260904133752 26 135 4.8 17.7 0.00 0.00 0.00 84 1013.3
20260904133009 26 257 4.8 17.7 0.00 0.00 0.00 84 1013.3
20260904132511 26 115 4.8 14.5 0.00 0.00 0.00 84 1013.2
20260904131949 26 265 4.8 14.5 0.00 0.00 0.00 85 1013.2
20260904131429 26 238 3.2 9.7 0.00 0.00 0.00 85 1013.2
20260904130929 26 117 3.2 12.9 0.00 0.00 0.00 85 1013.1
20260904130429 26 112 3.2 12.9 0.00 0.00 0.00 85 1013.1
20260904125935 25 165 3.2 8.0 0.00 0.00 0.00 85 1013.0
20260904125629 25 173 3.2 9.7 0.00 0.00 0.00 85 1013.0
20260904124840 25 133 3.2 9.7 0.00 0.00 0.00 85 1012.9
20260904124339 25 135 3.2 12.9 0.00 0.00 0.00 85 1012.9
20260904123814 25 135 3.2 9.7 0.00 0.00 0.00 86 1012.8
20260904123304 25 127 1.6 8.0 0.00 0.00 0.00 86 1012.8
20260904122805 25 153 1.6 6.4 0.00 0.00 0.00 86 1012.9
20260904122248 25 165 1.6 8.0 0.00 0.00 0.00 86 1012.9
20260904121743 25 136 1.6 8.0 0.00 0.00 0.00 86 1012.8
20260904121240 25 138 0.0 6.4 0.00 0.00 0.00 86 1012.8
20260904120717 25 120 0.0 4.8 0.00 0.00 0.00 86 1012.8
20260904120218 25 250 1.6 4.8 0.00 0.00 0.00 86 1012.8
20260904115654 25 121 1.6 9.7 0.00 0.00 0.00 86 1012.8
20260904115133 25 125 3.2 8.0 0.00 0.00 0.00 86 1012.7
20260904114604 25 142 1.6 8.0 0.00 0.00 0.00 86 1012.7
20260904114102 25 153 1.6 6.4 0.00 0.00 0.00 86 1012.6
20260904113534 25 135 1.6 6.4 0.00 0.00 0.00 85 1012.5
20260904113009 25 126 1.6 8.0 0.00 0.00 0.00 85 1012.5
20260904112505 25 127 1.6 8.0 0.00 0.00 0.00 85 1012.4
20260904112233 25 131 0.0 8.0 0.00 0.00 0.00 84 1012.4
20260904111459 25 134 1.6 9.7 0.00 0.00 0.00 84 1012.4
20260904111226 25 164 1.6 11.3 0.00 0.00 0.00 84 1012.3
20260904110430 25 113 1.6 11.3 0.00 0.00 0.00 84 1012.3
20260904105926 25 141 3.2 11.3 0.00 0.00 0.00 84 1012.3
20260904105626 25 108 1.6 6.4 0.00 0.00 0.00 84 1012.4
20260904104856 25 136 0.0 3.2 0.00 0.00 0.00 83 1012.4
20260904104356 25 122 1.6 8.0 0.00 0.00 0.00 83 1012.3
20260904103832 25 117 1.6 8.0 0.00 0.00 0.00 83 1012.3
20260904103524 25 134 1.6 6.4 0.00 0.00 0.00 83 1012.2
20260904102803 25 231 3.2 9.7 0.00 0.00 0.00 83 1012.2
20260904102236 25 149 1.6 9.7 0.00 0.00 0.00 83 1012.2
20260904101708 25 143 1.6 6.4 0.00 0.00 0.00 82 1012.1
20260904101141 25 124 1.6 8.0 0.00 0.00 0.00 82 1012.2
20260904100639 25 101 1.6 8.0 0.00 0.00 0.00 82 1012.2
20260904100111 25 133 1.6 12.9 0.00 0.00 0.00 82 1012.1
20260904095543 25 171 1.6 12.9 0.00 0.00 0.00 81 1012.1
20260904095043 25 236 1.6 6.4 0.00 0.00 0.00 81 1012.1
20260904094514 25 131 1.6 8.0 0.00 0.00 0.00 80 1012.1
20260904093950 25 154 1.6 8.0 0.00 0.00 0.00 80 1012.2
20260904093429 25 206 1.6 8.0 0.00 0.00 0.00 80 1012.1
20260904092928 25 184 1.6 8.0 0.00 0.00 0.00 80 1012.0
20260904092407 25 207 1.6 6.4 0.00 0.00 0.00 80 1012.0
20260904091907 25 142 1.6 12.9 0.00 0.00 0.00 79 1012.0
20260904091405 25 120 3.2 12.9 0.00 0.00 0.00 79 1012.0
20260904091121 25 228 1.6 11.3 0.00 0.00 0.00 79 1012.1
20260904090401 25 130 1.6 8.0 0.00 0.00 0.00 79 1012.1
20260904085833 25 158 3.2 8.0 0.00 0.00 0.00 79 1012.1
20260904085531 25 139 1.6 8.0 0.00 0.03 0.00 79 1012.1
20260904084740 25 201 1.6 8.0 0.00 0.03 0.00 79 1012.1
20260904084723 25 127 0.0 4.8 0.00 0.03 0.00 79 1012.0
20260904083734 25 122 1.6 9.7 0.00 0.03 0.00 78 1012.1
20260904083205 25 131 1.6 9.7 0.00 0.03 0.00 78 1012.0
20260904082706 25 217 1.6 8.0 0.00 0.03 0.00 78 1012.0
20260904082205 25 133 1.6 8.0 0.00 0.03 0.00 78 1011.9
20260904081704 25 117 1.6 4.8 0.00 0.03 0.00 78 1012.0
20260904081135 25 139 0.0 3.2 0.00 0.03 0.00 77 1012.0
20260904080634 25 138 0.0 3.2 0.00 0.03 0.00 77 1012.1
20260904080109 25 129 0.0 3.2 0.00 0.03 0.00 77 1012.1
20260904075555 25 116 0.0 3.2 0.00 0.03 0.00 77 1012.0
20260904075058 25 260 0.0 4.8 0.00 0.03 0.00 76 1011.9
20260904074753 25 120 0.0 8.0 0.00 0.03 0.00 76 1011.7
20260904074025 25 131 1.6 8.0 0.00 0.03 0.00 76 1011.9
20260904074001 25 132 1.6 8.0 0.00 0.03 0.00 76 1011.7
20260904073500 25 136 3.2 8.0 0.00 0.03 0.00 76 1011.7
20260904072514 25 221 1.6 8.0 0.00 0.03 0.00 75 1011.9
20260904072009 25 150 1.6 6.4 0.00 0.03 0.00 75 1012.0
20260904071507 25 119 1.6 4.8 0.00 0.03 0.00 75 1012.0
20260904071227 25 132 1.6 4.8 0.00 0.03 0.00 75 1012.0
20260904070504 25 195 1.6 6.4 0.00 0.03 0.00 74 1012.1
20260904065933 25 211 1.6 6.4 0.00 0.03 0.00 74 1012.1
20260904065432 25 161 1.6 8.0 0.00 0.03 0.00 74 1012.1
20260904064906 26 126 1.6 8.0 0.00 0.03 0.00 74 1012.1
20260904064337 26 188 3.2 8.0 0.00 0.03 0.00 73 1012.2
20260904063827 26 221 3.2 9.7 0.00 0.03 0.00 73 1012.2
20260904063323 26 144 4.8 11.3 0.00 0.03 0.00 73 1012.2
20260904062821 26 238 3.2 11.3 0.00 0.03 0.00 73 1012.2
20260904062253 26 142 1.6 8.0 0.00 0.03 0.00 73 1012.1
20260904062017 26 188 3.2 9.7 0.00 0.03 0.00 72 1012.1
20260904061225 26 262 4.8 9.7 0.00 0.03 0.00 72 1012.1
20260904060701 26 233 3.2 9.7 0.00 0.03 0.00 72 1012.1
20260904060202 26 128 3.2 9.7 0.00 0.03 0.00 71 1012.2
20260904055633 26 198 3.2 11.3 0.00 0.03 0.00 70 1012.2
20260904055129 26 215 4.8 8.0 0.00 0.03 0.00 70 1012.2
20260904054608 26 207 4.8 11.3 0.00 0.03 0.00 70 1012.2
20260904054034 26 233 4.8 12.9 0.00 0.03 0.00 69 1012.1
20260904053531 26 171 4.8 12.9 0.00 0.03 0.00 69 1012.1
20260904053027 26 230 4.8 11.3 0.00 0.03 0.00 69 1012.0
20260904052507 26 156 4.8 11.3 0.00 0.03 0.00 69 1012.0
20260904052007 26 151 3.2 9.7 0.00 0.03 0.00 69 1012.0
20260904051504 26 197 3.2 9.7 0.00 0.03 0.00 68 1012.1
20260904050951 26 162 3.2 12.9 0.00 0.03 0.00 68 1012.0
20260904050447 26 247 4.8 12.9 0.00 0.03 0.00 68 1012.0
20260904045927 26 160 3.2 11.3 0.00 0.03 0.03 67 1012.0
20260904045425 26 194 3.2 11.3 0.00 0.03 0.03 67 1012.1
20260904044925 26 188 3.2 9.7 0.00 0.03 0.03 66 1012.1
20260904044422 26 94 3.2 9.7 0.00 0.03 0.03 66 1012.1
20260904043921 26 139 3.2 9.7 0.00 0.03 0.03 66 1012.1
20260904043419 26 125 4.8 9.7 0.00 0.03 0.03 65 1012.1
20260904042922 26 188 4.8 14.5 0.00 0.03 0.03 65 1012.2
20260904042352 27 186 4.8 14.5 0.00 0.03 0.03 65 1012.3
20260904041851 27 221 3.2 12.9 0.00 0.03 0.03 65 1012.2
20260904041355 27 229 4.8 9.7 0.00 0.03 0.03 65 1012.3
20260904040835 27 220 4.8 11.3 0.00 0.03 0.03 65 1012.2
20260904040310 27 150 4.8 9.7 0.00 0.03 0.03 64 1012.2
20260904035803 27 256 4.8 11.3 0.00 0.03 0.03 64 1012.2
20260904035245 27 254 4.8 9.7 0.00 0.03 0.03 64 1012.1
20260904034743 27 207 3.2 11.3 0.00 0.03 0.03 64 1012.1
20260904034245 27 194 3.2 11.3 0.00 0.03 0.03 64 1012.1
20260904033725 27 117 3.2 12.9 0.00 0.03 0.03 64 1012.2
20260904033218 27 127 4.8 11.3 0.00 0.03 0.03 64 1012.2
20260904032659 27 200 4.8 16.1 0.00 0.03 0.03 64 1012.2
20260904032138 27 266 4.8 16.1 0.00 0.03 0.03 64 1012.4
20260904031641 27 242 4.8 16.1 0.00 0.03 0.03 64 1012.3
20260904031116 27 113 4.8 9.7 0.00 0.03 0.03 64 1012.2
20260904030559 27 200 6.4 16.1 0.00 0.03 0.03 64 1012.2
20260904030256 27 98 6.4 14.5 0.00 0.03 0.03 64 1012.0
20260904025510 27 117 6.4 19.3 0.00 0.03 0.03 64 1012.0
20260904025005 27 245 6.4 19.3 0.00 0.03 0.03 64 1011.9
20260904024503 27 131 4.8 12.9 0.00 0.03 0.03 64 1011.9
20260904024004 27 181 4.8 12.9 0.00 0.03 0.03 64 1011.7
20260904023439 28 250 6.4 12.9 0.00 0.03 0.03 65 1011.5
20260904022913 28 172 4.8 16.1 0.00 0.03 0.03 65 1011.5
20260904022410 28 82 4.8 16.1 0.00 0.03 0.03 66 1011.4
20260904021910 28 244 4.8 12.9 0.00 0.03 0.03 67 1011.2
20260904021409 28 133 4.8 17.7 0.00 0.03 0.03 66 1011.1
20260904020905 28 165 6.4 16.1 0.00 0.03 0.03 65 1011.1
20260904020341 28 207 6.4 17.7 0.00 0.03 0.03 64 1011.1
20260904015812 28 120 4.8 14.5 0.00 0.03 0.03 64 1010.9
20260904015308 28 218 3.2 12.9 0.00 0.03 0.03 64 1010.9
20260904014806 28 115 3.2 11.3 0.00 0.03 0.03 65 1010.8
20260904014305 28 133 6.4 11.3 0.00 0.03 0.03 65 1010.8
20260904013736 28 126 6.4 14.5 0.00 0.03 0.03 64 1010.8
20260904013211 28 124 4.8 14.5 0.00 0.03 0.03 64 1010.7
20260904012642 29 170 6.4 12.9 0.00 0.03 0.03 64 1010.6
20260904012338 29 195 6.4 14.5 0.00 0.03 0.03 64 1010.6
20260904011608 29 151 4.8 14.5 0.00 0.03 0.03 65 1010.5
20260904011044 29 108 4.8 16.1 0.00 0.03 0.03 64 1010.4
20260904010744 29 115 4.8 16.1 0.00 0.03 0.03 64 1010.4
20260904010022 29 152 4.8 17.7 0.00 0.03 0.03 63 1010.4
20260904005523 29 144 6.4 17.7 0.00 0.03 0.03 63 1010.5
20260904005022 29 96 4.8 14.5 0.00 0.03 0.03 63 1010.5
20260904004518 30 216 6.4 20.9 0.00 0.03 0.03 62 1010.5
20260904004239 30 136 8.0 20.9 0.00 0.03 0.03 62 1010.5
20260904003511 30 112 6.4 14.5 0.00 0.03 0.03 61 1010.4
20260904002947 30 180 8.0 20.9 0.00 0.03 0.03 60 1010.4
20260904002420 30 152 9.7 22.5 0.00 0.03 0.03 59 1010.4
20260904001915 30 105 9.7 22.5 0.00 0.03 0.03 58 1010.3
20260904001634 30 119 9.7 20.9 0.00 0.03 0.03 57 1010.3
20260904000910 31 117 8.0 20.9 0.00 0.03 0.03 56 1010.3
20260904000406 31 166 6.4 14.5 0.00 0.03 0.03 55 1010.3
20260903235904 31 110 8.0 16.1 0.00 0.03 0.03 55 1010.3
20260903235336 31 122 8.0 19.3 0.00 0.03 0.03 55 1010.3
20260903235055 31 136 8.0 20.9 0.00 0.03 0.03 55 1010.2
20260903234331 31 124 4.8 20.9 0.00 0.03 0.03 55 1010.2
20260903233828 31 279 6.4 22.5 0.00 0.03 0.03 56 1010.2
20260903233312 31 126 8.0 22.5 0.00 0.03 0.03 56 1010.2
20260903232744 31 167 8.0 20.9 0.00 0.03 0.03 57 1010.0
20260903232242 31 137 9.7 20.9 0.00 0.03 0.03 56 1010.0
20260903232159 31 142 9.7 20.9 0.00 0.03 0.03 56 1010.1
20260903231148 31 131 9.7 22.5 0.00 0.03 0.03 56 1010.1
20260903230912 31 137 9.7 22.5 0.00 0.03 0.03 55 1010.0
20260903230119 31 110 9.7 20.9 0.00 0.03 0.03 55 1010.0
20260903225615 32 149 8.0 20.9 0.00 0.03 0.03 54 1010.0
20260903225113 32 143 8.0 16.1 0.00 0.03 0.03 54 1010.0
20260903224549 32 154 6.4 19.3 0.00 0.03 0.03 54 1009.9
20260903224020 32 223 6.4 17.7 0.00 0.03 0.03 53 1009.9
20260903223516 32 141 6.4 17.7 0.00 0.05 0.03 54 1009.9
20260903223211 32 116 8.0 17.7 0.00 0.13 0.03 53 1009.9
20260903222641 32 217 8.0 19.3 0.00 0.13 0.03 53 1009.9
20260903221918 32 107 9.7 19.3 0.00 0.13 0.03 54 1009.9
20260903221640 32 153 9.7 20.9 0.00 0.13 0.03 53 1009.9
20260903220914 32 108 9.7 20.9 0.00 0.13 0.03 52 1009.9
20260903220349 32 113 9.7 19.3 0.00 0.13 0.03 53 1009.9
20260903215842 32 145 9.7 20.9 0.00 0.13 0.03 52 1010.0
20260903215314 32 262 8.0 20.9 0.00 0.13 0.03 52 1010.1
20260903214808 32 91 8.0 17.7 0.00 0.13 0.03 52 1010.1
20260903214306 32 203 9.7 17.7 0.00 0.13 0.03 52 1010.2
20260903213738 32 171 8.0 17.7 0.00 0.13 0.03 52 1010.2
20260903213236 32 226 8.0 16.1 0.00 0.13 0.03 51 1010.3
20260903212706 32 112 8.0 19.3 0.00 0.13 0.03 53 1010.2
20260903212142 32 212 9.7 19.3 0.00 0.13 0.03 53 1010.3
20260903211617 32 250 11.3 22.5 0.00 0.13 0.03 53 1010.4
20260903211104 32 231 9.7 22.5 0.00 0.13 0.03 53 1010.4
20260903210607 32 128 9.7 19.3 0.00 0.13 0.03 52 1010.5
20260903210048 32 188 9.7 19.3 0.00 0.13 0.03 54 1010.5
20260903205545 32 199 9.7 20.9 0.00 0.13 0.03 53 1010.6
20260903205505 32 162 9.7 20.9 0.00 0.13 0.03 54 1010.6
20260903204720 32 200 8.0 19.3 0.00 0.13 0.03 53 1010.7
20260903203928 32 60 8.0 19.3 0.00 0.13 0.03 54 1010.8
20260903203401 32 148 9.7 19.3 0.00 0.13 0.03 55 1010.8
20260903202901 32 123 9.7 20.9 0.00 0.13 0.03 56 1011.0
20260903202332 32 115 9.7 20.9 0.00 0.13 0.03 55 1011.1
20260903201828 32 240 8.0 20.9 0.00 0.13 0.03 55 1011.1
20260903201327 32 250 8.0 20.9 0.00 0.13 0.03 55 1011.2
20260903200824 31 217 9.7 19.3 0.00 0.13 0.03 56 1011.2
20260903200302 31 139 9.7 19.3 0.00 0.13 0.03 57 1011.2
20260903195803 31 243 9.7 17.7 0.00 0.13 0.03 58 1011.2
20260903195233 31 165 9.7 19.3 0.00 0.13 0.03 59 1011.2
20260903194731 31 229 9.7 20.9 0.00 0.13 0.03 58 1011.2
20260903194224 31 173 8.0 20.9 0.00 0.13 0.03 59 1011.3
20260903193700 31 267 9.7 19.3 0.00 0.13 0.03 59 1011.3
20260903193352 31 162 8.0 16.1 0.00 0.13 0.03 58 1011.3
20260903192626 31 160 8.0 20.9 0.00 0.13 0.03 60 1011.4
20260903192129 30 146 9.7 19.3 0.00 0.13 0.03 60 1011.5
20260903191603 30 164 9.7 20.9 0.00 0.13 0.03 62 1011.6